Погода в Сретенске

Погода в Сретенске : погода сейчас, прогноз погоды и архив. Всё, что Вы хотите узнать о погоде в Сретенске!

Хотите узнать прогноз погоды в Сретенске? Тогда Вам сюда: Погода в Сретенске

Поиск расширенной информации на нашем сайте:

Другие новости

Новости СМИ2

Главная страница сайта

Новости сайта

03.07.2017

Напоминаем, что на нашем специализированном сайте Метеоцентр.Азия вы можете получить высокодетализированные автоматические прогнозы погоды по пунктам России, СНГ и мира в авиационном формате (включающие направление и скорость ветра, видимость, явления погоды, количество и форму облачности, нижнюю и верхнюю границу облачности).


Погода в Сретенске - сегодня

Время (UTC), дата Ветер
(°,м/с) 
Видим.   Явления Облачность Т
(°С)
Тd
(°С)
f(%) Тe
(°С)
Pmin
(гПа)
dP
(гПа)
Po
(мм)
O2
(г/м3)
Тmin Tmax R s Состояние
почвы
09 26.07.17 020 (С) 1{13}  20000 м    4/3 1000 м средняя, верхняя 
[Cu Sc|Ac trans|Ci sp]
+25.3 +8.7 35 +26  1002  -0.2  708  259           
12 26.07.17 080 (В) 20000 м    9/0 средняя, верхняя 
[Ac trans|Ci sp]
+20.6 +9.3 48 +22  1004.6  1.5  709  264    +28.3       
15 26.07.17 240 (ЮЗ) 20000 м    1/0 верхняя 
[Ci sp]
+14.6 +9.9 73 +18  1007.4  1.5  710  270           
18 26.07.17 170 (Ю) 20000 м    3/0 средняя, верхняя 
[Ac lent|Ci sp]
+10.9 +9.4 90 +13  1009.5  1.2  711  274           
21 26.07.17 050 (СВ) 20000 м  туман на расстоянии  1/0 средняя 
[Ac lent]
+9 +8.3 95 +10  1011.4  1.3  712  276           
00 27.07.17 340 (С) 20000 м  в посл. час туман  ясно 
+14.2 +10.3 77 +18  1011.8  1.3  713  271  +9        сухая 
03 27.07.17 280 (З) 20000 м    1/1 1000 м 
[Cu med, cong]
+23 +12 50 +28  1008.8  -0.9  712  262           
06 27.07.17 010 (С) 20000 м  гроза без осадков  8/6 600 м кучево-дожд., верхняя 
[Cb cap|Ci sp]
+27.2 +8.1 30 +27  1007  -1  712  259           
09 27.07.17 330 (СЗ) 20000 м    8/6 1000 м кучево-дожд., верхняя 
[Cb cap|Ci sp]
+25.9 +7.5 31 +26  1007.2  0.1  712  261           
12 27.07.17 120 (ЮВ) 20000 м    4/0 верхняя 
[Ci sp]
+19.1 +10.5 57 +23  1009.2  0.6  712  266    +27.8       
15 27.07.17 090 (В) 20000 м    3/0 верхняя 
[Ci sp]
+14 +10.6 80 +18  1011.3  0.9  713  271           
18 27.07.17 тихо ()   20000 м    ясно 
+10 +8.9 93 +11  1013  0.8  713  276           
21 27.07.17 тихо ()   20000 м    4/0 верхняя 
[Ci sp]
+8.4 +7.7 95 +8  1013.7  0.3  714  278           
00 28.07.17 030 (СВ) 20000 м    10/4 1000 м верхняя 
[Sc|Ci sp]
+15 +10.6 75 +19  1011.7  -0.4  713  270  +8.3        сухая 
03 28.07.17 020 (С) 20000 м    10/6 1000 м средняя, верхняя 
[Sc|Ac trans|Ci sp]
+22.9 +12.2 51 +28  1009.2  -0.8  713  263           
06 28.07.17 050 (СВ) 20000 м    10/8 1000 м кучево-дожд., средняя 
[Cb cap|As op]
+23 +13.4 55 +30  1007.7  -1.3  712  262           
09 28.07.17 100 (В) 3{11}  20000 м    9/8 1000 м кучево-дожд., верхняя 
[Cb cap|Ci sp]
+25 +12.5 46 +31  1005.2  -2  710  260           
12 28.07.17 160 (Ю) 20000 м    9/9 600 м кучево-дожд. 
[Cb cap]
+22.3 +12.8 55 +29  1006.1  0.4  710  262    +26.4       
15 28.07.17 160 (Ю) 20000 м    10/10 600 м кучево-дожд. 
[Cb cap]
+18 +14.1 78 +28  1007.1  0.1  710  266           
18 28.07.17 тихо ()   20000 м  слаб. ливневой дождь  10/10 600 м кучево-дожд. 
[Cb cap]
+16 +14.7 92 +26  1007.2  -0.3  710  267           
21 28.07.17 210 (ЮЗ) 20000 м  слаб. дождь{ливн. осадки}  10/8 600 м средняя 
[St|As op]
+15.7 +14.5 93 +26  1007.2  710  267           
00 29.07.17 120 (ЮВ) 20000 м  {ливн. осадки, дождь}  9/6 200 м средняя 
[St|Ac As]
+16.7 +15.4 92 +29  1007.4  0.3  710  266  +15.4      влажная 
03 29.07.17 350 (С) 20000 м    8/3 1000 м кучево-дожд., верхняя 
[Cb calv|Ci sp]
+21.4 +15.4 69 +32  1005.7  -0.7  710  262           
06 29.07.17 080 (В) 12000 м  гроза, ливневой дождь  9/8 600 м кучево-дожд., средняя 
[Cb cap|Ac lent]
+19.1 +15.4 79 +31  1005  -1.1  709  264           
09 29.07.17 070 (В) 20000 м    8/3 1000 м кучево-дожд., средняя, верхняя 
[Cb calv|Ac cast|Ci sp]
+23.7 +14.5 56 +33  1002.8  -1.2  708  260           
Время (UTC), дата Ветер
(°,м/с) 
Видим.   Явления Облачность Т
(°С)
Тd
(°С)
f(%) Тe
(°С)
Pmin
(гПа)
dP
(гПа)
Po
(мм)
O2
(г/м3)
Тmin Tmax R s Состояние
почвы

Для получения пояснительной информации подведите курсор к названию столбца.

ПОГОДА в Сретенске - архив

Всё, что Вы хотите узнать о погоде в Сретенске - удобно и подробно!

Выберите нужную дату (начиная с 1 января 2015* года) и нажмите кнопку "Найти".
Будут отображены архивные сводки погоды по пункту Сретенск, начиная с указанной даты.


Отображать данные в формате CSV (для использования в таблицах Excel)


Внимание! Наш архив погоды предназначен исключительно для личного некоммерческого использования в познавательных целях. Если Вам необходимы официальные справки о состоянии погоды (для производственных, юридических, коммерческих и т.п. целей), обращайтесь в органы Росгидромета.

*Примечание: данная дата относится к архиву по метеостанциям СССР (Россия, СНГ, Балтия).
Архив по метеостанциям Зарубежной Европы и Азии (кроме Китая) хранится 10 дней, по другим регионам земного шара (Китай, Африка, Америка, Австралия, Океания) - 1 день.

Сретенск - район местоположения метеостанции


Название, широта, долгота, высота метеостанции:
Сретенск 52.2°ш. 117.7°д. 525 м над ур. моря [Российская Федерация]

Дополнительная информация

В oтличие oт бoльшинства пoгoдных сайтoв мы публикуем пoдрoбную метеoинфoрмацию в детальнoм прoфессиoнальнoм фoрмате.

Характеристики температуры и влажнoсти вoздуха измеряются на высoте 2 м в тени вдали oт зданий и деревьев.
Скoрoсть ветра измеряется на высoте 10 м (на урoвне рoста челoвека скoрoсть ветра ниже в 1.5-2 раза). Если метеoстанция нахoдится в гoрoде или в лесу, тo скoрoсть ветра занижена на 2-4 м/с пo сравнению с oткрытым местoм. Скoрoсть ветра над акватoриями крупных рек и oзёр, а также на вершинах хoлмoв на 2-5 м/с выше, чем в oбычных услoвиях.
Атмoсфернoе давление в разных тoчках местнoсти мoжет значительнo oтличаться oт давления на метеoстанции, в зависимoсти oт услoвий рельефа (при пoдъёме на 10 м давление пoнижается примернo на 1 мм рт.ст.).